[[{"header":{"parameterUnit":"m.s-1","parameterCategory":1,"la1":30.2991,"la2":30.254,"lo1":-89.0895,"lo2":-89.0444,"dy":0.0017,"dx":0.0017,"nx":28,"ny":28,"refTime":"2024-08-15T09:00:00:Z","depth":0,"parameterNumber":2,"parameterNumberName":"U-component_of_WINDS"},"data":[0,0,0,0,0,0,0,0,0,0,0,0,0,0,0,0,0,0,0,0,0,0,0,0,0,0,0,0,0,0,0,0,0,0,0,0,0,0,0,0,0,0,0,0,0,0,0,0,0,0,0,0,0,0,0,0,0,0,-0.3662,-0.3663,0,-0.3739,-0.374,-0.3741,-0.3798,-0.3798,-0.3799,-0.3799,-0.388,-0.3881,-0.3883,0,0,0,0,0,0,0,0,0,0,0,0,0,-0.3567,-0.3568,-0.3662,-0.3663,-0.3664,-0.3739,-0.374,-0.3741,-0.3798,-0.3798,-0.3799,-0.3799,-0.3879,-0.3881,-0.3883,0,0,0,0,0,0,0,0,0,0,0,0,0,-0.3622,-0.3568,-0.3662,-0.3701,-0.3705,-0.3739,-0.374,-0.3741,-0.3798,-0.3798,-0.3799,-0.38,-0.3879,-0.3881,-0.3884,-0.3885,0,0,-0.3891,-0.3892,0,0,0,0,0,0,0,0,-0.3619,-0.3626,-0.3694,-0.3698,-0.3703,-0.376,-0.3736,-0.379,-0.3797,-0.3763,-0.3799,-0.38,-0.3839,-0.3845,-0.3858,-0.3888,-0.3892,-0.3892,-0.3893,-0.3894,-0.3895,0,0,0,0,0,0,0,-0.3615,-0.3623,-0.3693,-0.3695,-0.3701,-0.3716,-0.3725,-0.3747,-0.3796,-0.3766,-0.377,-0.3778,-0.3842,-0.3855,-0.386,-0.3893,-0.3892,-0.3894,-0.3895,-0.3896,-0.3931,-0.393,0,0,0,0,0,0,-0.3605,-0.3619,-0.369,-0.3695,-0.3662,-0.3717,-0.3727,-0.3741,-0.3796,-0.3805,-0.3778,-0.3781,-0.3851,-0.3857,-0.3863,-0.387,-0.3894,-0.3897,-0.3898,-0.3931,-0.3931,-0.393,0,0,0,0,0,0,-0.3602,-0.3611,-0.3687,-0.3658,-0.3669,-0.3718,-0.3733,-0.3742,-0.3756,-0.3805,-0.3814,-0.3782,-0.3852,-0.386,-0.3879,-0.3873,-0.3898,-0.39,-0.3932,-0.3931,-0.393,-0.3881,0,0,0,0,0,0,-0.3599,-0.3609,-0.3609,-0.3658,-0.367,-0.37,-0.3733,-0.3743,-0.376,-0.3764,-0.3812,-0.382,-0.3853,-0.3875,-0.3882,-0.3877,-0.3902,-0.3933,-0.3932,-0.3931,-0.3884,-0.3879,-0.3875,0,0,0,0,0,-0.3596,-0.3592,-0.3609,-0.3617,-0.3671,-0.37,-0.3707,-0.3745,-0.3759,-0.376,-0.3792,-0.3819,-0.3873,-0.3877,-0.3885,-0.3881,-0.3934,-0.3932,-0.3931,-0.3886,-0.388,-0.3875,0,0,0,0,0,0,-0.3542,-0.3599,-0.3618,-0.363,-0.366,-0.3709,-0.3712,-0.3737,-0.3763,-0.3767,-0.3812,-0.3823,-0.3838,-0.3861,-0.3865,-0.3886,-0.3907,-0.3907,-0.387,-0.3865,-0.386,-0.3854,-0.3904,0,0,0,0,0,-0.3531,-0.3549,-0.3599,-0.3604,-0.3618,-0.3662,-0.3676,-0.3703,-0.3735,-0.3748,-0.3782,-0.3813,-0.3837,-0.3852,-0.3877,-0.3888,-0.39,-0.3889,-0.3885,-0.3881,-0.388,-0.389,-0.3886,-0.3926,-0.3926,-0.3926,0,0,-0.351,-0.3543,-0.3552,-0.3594,-0.362,-0.3639,-0.3672,-0.369,-0.3705,-0.3751,-0.3772,-0.3797,-0.3836,-0.3851,-0.3859,-0.3871,-0.3872,-0.3879,-0.3875,-0.3877,-0.3888,-0.3884,-0.3881,-0.3925,-0.3925,-0.3925,0,0,-0.348,-0.3507,-0.3515,-0.3541,-0.358,-0.361,-0.3612,-0.3658,-0.3677,-0.3698,-0.3734,-0.3753,-0.3793,-0.3819,-0.3838,-0.3821,-0.3847,-0.3828,-0.3804,-0.3812,-0.3809,-0.3807,-0.3802,-0.3799,-0.3827,-0.3827,-0.3827,0,-0.3448,-0.3477,-0.3516,-0.3532,-0.3551,-0.3594,-0.3604,-0.3627,-0.3672,-0.3685,-0.3697,-0.375,-0.3779,-0.3802,-0.3798,-0.3811,-0.3816,-0.3822,-0.3806,-0.3804,-0.3803,-0.3798,-0.3796,-0.3824,-0.3825,-0.3825,-0.3825,0,-0.3437,-0.3456,-0.3458,-0.3501,-0.352,-0.3533,-0.3576,-0.359,-0.3616,-0.3644,-0.3667,-0.3703,-0.3737,-0.3744,-0.3769,-0.3772,-0.3778,-0.3798,-0.382,-0.3796,-0.3793,-0.3791,-0.3821,-0.3822,-0.3822,-0.3823,0,0,-0.3374,-0.344,-0.344,-0.3461,-0.3508,-0.3524,-0.354,-0.3573,-0.3585,-0.3616,-0.3631,-0.3665,-0.3685,-0.3706,-0.3734,-0.3741,-0.3727,-0.3761,-0.3762,-0.3754,-0.3734,-0.3719,-0.3717,-0.3745,-0.3745,-0.3745,-0.3731,0,-0.3352,-0.3382,-0.3419,-0.3436,-0.3456,-0.3498,-0.3512,-0.3543,-0.3571,-0.3592,-0.3624,-0.3648,-0.3671,-0.3684,-0.3693,-0.3727,-0.3724,-0.3728,-0.3761,-0.3761,-0.375,-0.3715,-0.3699,-0.3685,-0.373,-0.373,-0.373,0,-0.333,-0.3358,-0.3378,-0.3425,-0.3435,-0.3446,-0.3481,-0.35,-0.3538,-0.3558,-0.3582,-0.3613,-0.3633,-0.3652,-0.3682,-0.3684,-0.37,-0.3719,-0.3719,-0.3724,-0.3744,-0.3719,-0.3681,-0.3679,-0.3728,-0.3728,-0.3729,0,-0.3283,-0.3327,-0.3344,-0.3361,-0.3416,-0.3424,-0.3447,-0.3485,-0.3503,-0.3534,-0.3546,-0.3579,-0.3597,-0.3622,-0.3661,-0.3671,-0.3687,-0.3709,-0.3706,-0.3705,-0.3707,-0.3706,-0.3671,-0.3716,-0.3716,-0.3716,-0.3716,0,-0.3255,-0.3266,-0.3325,-0.3335,-0.3349,-0.3393,-0.3405,-0.3433,-0.3467,-0.3485,-0.3523,-0.354,-0.359,-0.3613,-0.3644,-0.3665,-0.3673,-0.369,-0.3699,-0.3687,-0.3685,-0.3698,-0.37,-0.3715,-0.3716,-0.3716,-0.3716,0,-0.3205,-0.3245,-0.3267,-0.3318,-0.3332,-0.3339,-0.3384,-0.3397,-0.3428,-0.345,-0.3458,-0.3507,-0.3536,-0.3578,-0.3619,-0.364,-0.3657,-0.367,-0.3644,-0.3649,-0.3643,-0.3644,-0.3616,-0.3615,-0.3659,-0.3659,-0.3658,0,-0.3185,-0.3194,-0.3247,-0.3261,-0.3284,-0.3307,-0.3326,-0.337,-0.3388,-0.3432,-0.344,-0.3473,-0.35,-0.3545,-0.3585,-0.3618,-0.3632,-0.362,-0.3637,-0.3626,-0.3633,-0.3633,-0.3634,-0.3616,-0.3615,-0.3615,-0.3614,0,-0.3145,-0.3165,-0.319,-0.3223,-0.3245,-0.3273,-0.3303,-0.3313,-0.3364,-0.3383,-0.3413,-0.3435,-0.3478,-0.351,-0.3549,-0.3575,-0.3603,-0.3609,-0.361,-0.3598,-0.3584,-0.3593,-0.3634,-0.3609,-0.361,-0.361,-0.361,-0.361,-0.311,-0.3121,-0.316,-0.3188,-0.3215,-0.3243,-0.3258,-0.3291,-0.3317,-0.3355,-0.338,-0.3409,-0.3449,-0.3503,-0.3528,-0.3552,-0.3564,-0.3565,-0.3566,-0.3566,-0.3562,-0.3579,-0.356,-0.356,-0.356,-0.356,-0.356,0,-0.3073,-0.31,-0.3125,-0.3167,-0.3189,-0.3214,-0.3249,-0.3267,-0.3292,-0.3326,-0.3353,-0.3389,-0.342,-0.3463,-0.3498,-0.351,-0.3524,-0.3518,-0.3518,-0.3524,-0.3549,-0.3545,-0.3506,-0.3506,-0.3506,-0.3506,-0.3506,-0.3506,-0.3056,-0.3076,-0.3101,-0.3136,-0.3164,-0.3192,-0.3211,-0.3237,-0.3265,-0.3303,-0.3329,-0.3357,-0.3395,-0.3434,-0.3465,-0.3477,-0.3488,-0.3478,-0.3494,-0.3517,-0.3522,-0.3526,-0.3523,-0.348,-0.348,-0.3467,-0.3467,-0.3466]},{"header":{"parameterUnit":"m.s-1","parameterCategory":1,"la1":30.2991,"la2":30.254,"lo1":-89.0895,"lo2":-89.0444,"dy":0.0017,"dx":0.0017,"nx":28,"ny":28,"refTime":"2024-08-15T09:00:00:Z","depth":0,"parameterNumber":3,"parameterNumberName":"V-component_of_WINDS"},"data":[0,0,0,0,0,0,0,0,0,0,0,0,0,0,0,0,0,0,0,0,0,0,0,0,0,0,0,0,0,0,0,0,0,0,0,0,0,0,0,0,0,0,0,0,0,0,0,0,0,0,0,0,0,0,0,0,0,0,1.614,1.6141,0,1.6283,1.6285,1.6286,1.6312,1.6311,1.6309,1.6308,1.6452,1.6457,1.6462,0,0,0,0,0,0,0,0,0,0,0,0,0,1.5883,1.5888,1.614,1.6141,1.6143,1.6283,1.6285,1.6287,1.6312,1.6311,1.6309,1.6308,1.6451,1.6456,1.6462,0,0,0,0,0,0,0,0,0,0,0,0,0,1.6007,1.589,1.6139,1.6173,1.6177,1.6282,1.6285,1.6287,1.6312,1.6311,1.6309,1.6307,1.6449,1.6456,1.6463,1.6544,0,0,1.6486,1.6489,0,0,0,0,0,0,0,0,1.6,1.6017,1.6166,1.6171,1.6176,1.6278,1.6247,1.6373,1.6313,1.6261,1.6308,1.6306,1.6395,1.6407,1.6438,1.6551,1.6557,1.6486,1.6491,1.6494,1.6496,0,0,0,0,0,0,0,1.5992,1.6011,1.6196,1.6168,1.6174,1.6179,1.6195,1.6271,1.6336,1.6265,1.6268,1.6284,1.6398,1.643,1.6441,1.6559,1.6486,1.6493,1.6497,1.65,1.6743,1.6745,0,0,0,0,0,0,1.5978,1.6003,1.6192,1.6201,1.6082,1.6185,1.6203,1.6247,1.6336,1.6347,1.6286,1.6285,1.6419,1.6433,1.6446,1.6545,1.6494,1.6501,1.6505,1.6741,1.6743,1.6745,0,0,0,0,0,0,1.5972,1.5994,1.6186,1.6103,1.6128,1.6191,1.6241,1.6251,1.6284,1.6351,1.6362,1.6308,1.6418,1.6436,1.6519,1.6551,1.6504,1.6511,1.6738,1.6741,1.6744,1.6745,0,0,0,0,0,0,1.5965,1.5992,1.6025,1.6103,1.6132,1.6258,1.6243,1.6255,1.6297,1.6297,1.6374,1.6386,1.6418,1.6508,1.6526,1.656,1.6517,1.6736,1.674,1.6743,1.6742,1.6747,1.6752,0,0,0,0,0,1.5955,1.6019,1.6026,1.6049,1.6174,1.626,1.6276,1.6313,1.6299,1.6332,1.6374,1.6383,1.6544,1.6516,1.6537,1.6574,1.6734,1.6739,1.6743,1.674,1.6746,1.6752,0,0,0,0,0,0,1.5943,1.603,1.6039,1.6131,1.6188,1.6264,1.6306,1.6319,1.638,1.6378,1.642,1.6437,1.6517,1.6554,1.6521,1.6655,1.6638,1.6647,1.6628,1.6635,1.664,1.6629,1.6523,0,0,0,0,0,1.5951,1.6014,1.6087,1.616,1.6188,1.6242,1.6281,1.6304,1.6364,1.6388,1.6437,1.6494,1.6557,1.6598,1.666,1.6747,1.6763,1.6782,1.6787,1.6791,1.6798,1.6844,1.6853,1.676,1.676,1.676,0,0,1.5968,1.6023,1.6061,1.6159,1.6206,1.6268,1.6262,1.633,1.6376,1.6398,1.648,1.6517,1.6583,1.6668,1.6708,1.6701,1.6827,1.6797,1.6799,1.6804,1.685,1.6858,1.6866,1.6763,1.6763,1.6762,0,0,1.6031,1.608,1.6146,1.6192,1.6263,1.6298,1.6313,1.6388,1.6414,1.6496,1.6513,1.6568,1.6677,1.6723,1.676,1.6837,1.6846,1.6856,1.6881,1.6925,1.6933,1.6939,1.6965,1.6974,1.6863,1.6863,1.6863,0,1.6043,1.6139,1.6177,1.6244,1.6285,1.6308,1.6373,1.6417,1.6504,1.6531,1.6522,1.6658,1.6704,1.6798,1.6817,1.6847,1.6865,1.6847,1.6929,1.6936,1.6943,1.6967,1.6977,1.6863,1.6863,1.6863,1.6863,0,1.6149,1.6216,1.626,1.6344,1.639,1.6456,1.6502,1.6544,1.6562,1.6597,1.6679,1.6736,1.6808,1.6832,1.6851,1.6929,1.6922,1.6921,1.6904,1.6951,1.6975,1.6985,1.6864,1.6864,1.6864,1.6864,0,0,1.621,1.6312,1.6328,1.6365,1.6443,1.6494,1.6559,1.6631,1.6665,1.6724,1.6778,1.6869,1.6867,1.6909,1.6933,1.6972,1.7027,1.6966,1.6968,1.6974,1.7113,1.7113,1.7124,1.7034,1.7036,1.7037,1.7107,0,1.6281,1.64,1.6434,1.6533,1.6593,1.6614,1.6671,1.6724,1.6758,1.6813,1.685,1.6912,1.6906,1.6932,1.6971,1.7012,1.7055,1.7007,1.7083,1.7085,1.7065,1.7137,1.7138,1.7201,1.7117,1.7119,1.712,0,1.6381,1.6441,1.6545,1.6614,1.664,1.6691,1.6757,1.681,1.687,1.6891,1.6938,1.6957,1.7024,1.7003,1.7094,1.7061,1.7093,1.7117,1.7121,1.7129,1.7105,1.7145,1.7223,1.7232,1.7135,1.7134,1.7133,0,1.6412,1.6519,1.6595,1.6626,1.6708,1.6743,1.6778,1.6836,1.6876,1.6934,1.696,1.7024,1.706,1.7108,1.7144,1.7126,1.7231,1.7214,1.7249,1.7248,1.727,1.7268,1.7353,1.7293,1.7292,1.7292,1.7292,0,1.6488,1.6551,1.661,1.6657,1.6727,1.6765,1.6833,1.6869,1.692,1.6972,1.6994,1.7043,1.7087,1.7141,1.7169,1.7239,1.7255,1.7273,1.7279,1.7271,1.7268,1.7292,1.7288,1.7295,1.7294,1.7294,1.7293,0,1.6535,1.6578,1.6662,1.6732,1.6751,1.6799,1.6858,1.6903,1.6937,1.7003,1.7021,1.7073,1.7138,1.7178,1.726,1.7278,1.7354,1.736,1.7334,1.7337,1.737,1.7365,1.7472,1.7487,1.7418,1.7418,1.7419,0,1.658,1.6629,1.6704,1.6741,1.6777,1.6836,1.6876,1.6915,1.6956,1.7026,1.7062,1.7127,1.7182,1.7283,1.7328,1.7389,1.7396,1.7429,1.7406,1.7394,1.7395,1.7391,1.7395,1.7433,1.7433,1.7434,1.7434,0,1.6655,1.6673,1.6731,1.6796,1.6843,1.6896,1.6949,1.6977,1.7024,1.7069,1.7135,1.7177,1.726,1.7324,1.7389,1.7424,1.7436,1.7441,1.7452,1.7443,1.7426,1.7434,1.7344,1.7438,1.7438,1.7438,1.7437,1.7437,1.6702,1.6745,1.6804,1.6867,1.6911,1.6958,1.7003,1.7042,1.7098,1.7169,1.7188,1.7256,1.7312,1.7401,1.7437,1.7489,1.7485,1.7501,1.7505,1.7509,1.7508,1.7418,1.7501,1.7501,1.7501,1.7501,1.7501,0,1.6777,1.6815,1.6873,1.6945,1.6994,1.7002,1.7059,1.7099,1.7159,1.7211,1.7263,1.7338,1.7399,1.7448,1.7511,1.7543,1.755,1.7558,1.7556,1.7563,1.751,1.7493,1.7551,1.7551,1.7551,1.7551,1.7551,1.7551,1.6822,1.6894,1.6919,1.7012,1.705,1.7118,1.7149,1.7193,1.7234,1.7316,1.7367,1.7398,1.7448,1.7514,1.757,1.7582,1.7604,1.7611,1.7624,1.7573,1.7567,1.7562,1.7547,1.7615,1.7615,1.7673,1.7674,1.7674]}]]